Weather History for Kelso-Longview, WA

Change the Weather History Date:

Thursday, November 21, 2013

  Actual Average Record
Temperature  
Mean Temperature 34 °F -  
Max Temperature 44 °F 48 °F 53 °F (2002)
Min Temperature 23 °F 37 °F 23 °F (2013)
Degree Days  
Heating Degree Days 32    
Moisture  
Dew Point 24 °F    
Average Humidity 72    
Maximum Humidity 86    
Minimum Humidity 43    
Precipitation  
Precipitation 0.00 in - - ()
Sea Level Pressure  
Sea Level Pressure 30.60 in    
Wind  
Wind Speed 3 mph (North)    
Max Wind Speed 12 mph    
Max Gust Speed -    
Visibility 10 miles    
Events      
Averages and records for this station are not official NWS values.
T = Trace of Precipitation, MM = Missing Value Source: NWS Daily Summary

Daily Weather History Graph

Daily Weather History Graph

Search for Another Location

Airport:

Trip Planner

Search our weather history database for the weather conditions in past years. The results will help you decide how hot, cold, wet, or windy it might be!

Date:

Astronomy

Nov. 21, 2013 Rise Set
Actual Time 7:21 AM PST 4:33 PM PST
Civil Twilight 6:48 AM PST 5:06 PM PST
Nautical Twilight 6:11 AM PST 5:43 PM PST
Astronomical Twilight 5:35 AM PST 6:19 PM PST
Moon 8:17 PM PST (11/21) 10:29 AM PST (11/21)
Length of Visible Light 10h 18m
Length of Day
9h 12m
Waning Gibbous, 84% of the Moon is Illuminated
Nov 21
Waning Gibbous
Nov 25
Last Quarter
Dec 2
New
Dec 9
First Quarter
Dec 17
Full

Hourly Weather History & Observations

Time (PST) Temp. Windchill Dew Point Humidity Pressure Visibility Wind Dir Wind Speed Gust Speed Precip Events Conditions
12:15 AM 30.2 °F 25.4 °F 24.8 °F 80% 30.50 in 10.0 mi NW 4.6 mph - N/A   Clear
12:35 AM 30.2 °F 26.7 °F 24.8 °F 80% 30.50 in 10.0 mi West 3.5 mph - N/A   Clear
12:55 AM 30.2 °F 24.3 °F 26.6 °F 86% 30.51 in 10.0 mi WSW 5.8 mph - N/A   Clear
1:15 AM 30.2 °F 26.7 °F 24.8 °F 80% 30.52 in 10.0 mi North 3.5 mph - N/A   Clear
1:35 AM 30.2 °F - 24.8 °F 80% 30.52 in 10.0 mi Calm Calm - N/A   Clear
1:55 AM 28.4 °F - 24.8 °F 86% 30.52 in 10.0 mi Calm Calm - N/A   Clear
2:15 AM 28.4 °F - 23.0 °F 80% 30.53 in 10.0 mi Calm Calm - N/A   Clear
2:35 AM 28.4 °F 24.6 °F 24.8 °F 86% 30.53 in 10.0 mi North 3.5 mph - N/A   Clear
2:55 AM 28.4 °F - 23.0 °F 80% 30.54 in 10.0 mi Calm Calm - N/A   Clear
3:15 AM 26.6 °F - 23.0 °F 86% 30.54 in 10.0 mi Calm Calm - N/A   Clear
3:35 AM 28.4 °F - 23.0 °F 80% 30.54 in 10.0 mi Calm Calm - N/A   Clear
3:55 AM 26.6 °F - 23.0 °F 86% 30.55 in 10.0 mi Calm Calm - N/A   Clear
4:15 AM 26.6 °F - 23.0 °F 86% 30.55 in 10.0 mi Calm Calm - N/A   Clear
4:35 AM 24.8 °F - 21.2 °F 86% 30.55 in 10.0 mi Calm Calm - N/A   Clear
4:55 AM 24.8 °F - 21.2 °F 86% 30.56 in 10.0 mi North - - N/A   Clear
5:15 AM 24.8 °F - 21.2 °F 86% 30.57 in 10.0 mi North - - N/A   Clear
5:35 AM 24.8 °F - 21.2 °F 86% 30.57 in 10.0 mi North - - N/A   Clear
5:55 AM 24.8 °F - 19.4 °F 80% 30.58 in 10.0 mi North - - N/A   Clear
6:15 AM 23.0 °F - 19.4 °F 86% 30.59 in 10.0 mi North - - N/A   Clear
6:35 AM 24.8 °F - 19.4 °F 80% 30.59 in 10.0 mi North - - N/A   Clear
6:55 AM 23.0 °F - 19.4 °F 86% 30.60 in 9.0 mi North - - N/A   Clear
7:15 AM 23.0 °F - 17.6 °F 80% 30.61 in 10.0 mi North - - N/A   Clear
7:35 AM 24.8 °F - 21.2 °F 86% 30.61 in 10.0 mi North - - N/A   Clear
7:55 AM 24.8 °F - 21.2 °F 86% 30.63 in 10.0 mi North - - N/A   Clear
8:15 AM 26.6 °F - 23.0 °F 86% 30.63 in 10.0 mi North - - N/A   Clear
8:35 AM 26.6 °F - 23.0 °F 86% 30.64 in 10.0 mi North - - N/A   Clear
8:55 AM 28.4 °F - 24.8 °F 86% 30.65 in 10.0 mi North - - N/A   Clear
9:15 AM 28.4 °F - 24.8 °F 86% 30.65 in 10.0 mi North - - N/A   Clear
9:35 AM 32.0 °F - 26.6 °F 80% 30.65 in 10.0 mi North - - N/A   Clear
9:55 AM 33.8 °F - 26.6 °F 75% 30.65 in 10.0 mi Calm Calm - N/A   Clear
10:15 AM 33.8 °F - 26.6 °F 75% 30.65 in 10.0 mi Calm Calm - N/A   Clear
10:35 AM 35.6 °F 31.7 °F 26.6 °F 70% 30.64 in 10.0 mi North 4.6 mph - N/A   Clear
10:55 AM 37.4 °F - 26.6 °F 65% 30.63 in 10.0 mi Calm Calm - N/A   Clear
11:15 AM 37.4 °F - 24.8 °F 60% 30.63 in 10.0 mi Calm Calm - N/A   Clear
11:35 AM 37.4 °F 32.8 °F 26.6 °F 65% 30.62 in 10.0 mi North 5.8 mph - N/A   Clear
11:55 AM 39.2 °F 34.2 °F 26.6 °F 61% 30.62 in 10.0 mi North 6.9 mph - N/A   Clear
12:15 PM 39.2 °F 33.0 °F 26.6 °F 61% 30.62 in 10.0 mi NNW 9.2 mph - N/A   Clear
12:35 PM 41.0 °F 36.4 °F 24.8 °F 53% 30.61 in 10.0 mi North 6.9 mph - N/A   Clear
12:55 PM 42.8 °F 38.0 °F 26.6 °F 53% 30.61 in 10.0 mi NNW 8.1 mph - N/A   Clear
1:15 PM 42.8 °F 38.6 °F 26.6 °F 53% 30.61 in 10.0 mi NNW 6.9 mph - N/A   Clear
1:35 PM 42.8 °F 38.0 °F 24.8 °F 49% 30.60 in 10.0 mi North 8.1 mph - N/A   Clear
1:55 PM 42.8 °F 36.6 °F 24.8 °F 49% 30.61 in 10.0 mi North 11.5 mph - N/A   Clear
2:15 PM 42.8 °F 38.0 °F 24.8 °F 49% 30.61 in 10.0 mi North 8.1 mph - N/A   Clear
2:35 PM 44.6 °F 42.2 °F 24.8 °F 46% 30.60 in 10.0 mi North 4.6 mph - N/A   Clear
2:55 PM 44.6 °F 40.2 °F 24.8 °F 46% 30.60 in 10.0 mi North 8.1 mph - N/A   Clear
3:15 PM 44.6 °F 39.7 °F 24.8 °F 46% 30.61 in 10.0 mi North 9.2 mph - N/A   Clear
3:35 PM 44.6 °F 41.4 °F 23.0 °F 43% 30.60 in 10.0 mi North 5.8 mph - N/A   Clear
3:55 PM 42.8 °F 39.3 °F 24.8 °F 49% 30.60 in 10.0 mi NNW 5.8 mph - N/A   Clear
4:15 PM 42.8 °F 40.1 °F 24.8 °F 49% 30.61 in 10.0 mi North 4.6 mph - N/A   Clear
4:35 PM 41.0 °F 37.1 °F 24.8 °F 53% 30.61 in 10.0 mi North 5.8 mph - N/A   Clear
4:55 PM 41.0 °F - 24.8 °F 53% 30.61 in 10.0 mi Calm Calm - N/A   Clear
5:15 PM 37.4 °F - 24.8 °F 60% 30.61 in 10.0 mi Calm Calm - N/A   Clear
5:35 PM 37.4 °F 34.9 °F 24.8 °F 60% 30.62 in 10.0 mi NE 3.5 mph - N/A   Clear
5:55 PM 37.4 °F - 24.8 °F 60% 30.63 in 10.0 mi Calm Calm - N/A   Clear
6:15 PM 35.6 °F 32.8 °F 24.8 °F 65% 30.63 in 10.0 mi ESE 3.5 mph - N/A   Clear
6:35 PM 33.8 °F - 26.6 °F 75% 30.64 in 10.0 mi Calm Calm - N/A   Clear
6:55 PM 35.6 °F - 24.8 °F 65% 30.64 in 10.0 mi Calm Calm - N/A   Clear
7:15 PM 35.6 °F - 24.8 °F 65% 30.64 in 10.0 mi Calm Calm - N/A   Clear
7:35 PM 35.6 °F - 23.0 °F 60% 30.63 in 10.0 mi Calm Calm - N/A   Clear
7:55 PM 32.0 °F - 24.8 °F 75% 30.61 in 10.0 mi Calm Calm - N/A   Clear
8:15 PM 30.2 °F - 24.8 °F 80% 30.61 in 10.0 mi Calm Calm - N/A   Clear
8:35 PM 30.2 °F - 24.8 °F 80% 30.61 in 10.0 mi Calm Calm - N/A   Clear
8:55 PM 30.2 °F - 24.8 °F 80% 30.61 in 10.0 mi Calm Calm - N/A   Clear
9:15 PM 28.4 °F - 24.8 °F 86% 30.62 in 10.0 mi Calm Calm - N/A   Clear
9:35 PM 28.4 °F - 23.0 °F 80% 30.62 in 10.0 mi Calm Calm - N/A   Clear
9:55 PM 28.4 °F - 24.8 °F 86% 30.63 in 10.0 mi Calm Calm - N/A   Clear
10:15 PM 26.6 °F - 21.2 °F 80% 30.64 in 10.0 mi Calm Calm - N/A   Clear
10:35 PM 26.6 °F - 21.2 °F 80% 30.63 in 10.0 mi Calm Calm - N/A   Clear
10:55 PM 26.6 °F - 23.0 °F 86% 30.63 in 10.0 mi Calm Calm - N/A   Clear
11:15 PM 26.6 °F - 21.2 °F 80% 30.63 in 10.0 mi Calm Calm - N/A   Clear
11:35 PM 26.6 °F - 21.2 °F 80% 30.63 in 10.0 mi Calm Calm - N/A   Clear
11:55 PM 26.6 °F - 23.0 °F 86% 30.63 in 10.0 mi Calm Calm - N/A   Clear